Location: Avully
(45.9633°N, 6.0228°E)
Time: 11:56:02
(UTC+00:00)

Aureole 3 - Pass Details

Date: 23 May 2024
Orbit: 378 x 1127 km, 82.5° (Epoch: 14 June)

Event Time Altitude Azimuth Distance (km) Brightness Sun altitude
Exits shadow 01:10:18 24° 300° (WNW) 847 4.3 -19.8°
Drops below altitude 10° 01:12:24 10° 344° (NNW) 1,410 6.1 -19.7°
Sets 01:14:38 0° 358° (N) 2,302 7.6 -19.5°
